Погода в Невинномысске

Россия / Ставропольский край     44°38′17″N   41°56′09″E
В апреле 2022 года жителям России запретили посещать сайт meteo.paraplan.net по решению Генеральной прокуратуры. Аудитория сайта уменьшилась в 10 раз. Владельцы сайта не видят смысла в поддержке погодного сервера в таких условиях. Сайт будет закрыт в октябре.
темп.,
°C
ветер,
м/с
пор.,
м/с
влажн.,
%
обл.,
%
осадки,
мм/ч
давл.,
гПа
погр.,
м
5 октября, ср
ср500:00+13зюз2391100 1.2 1021185
03:00+12юз1294100 7.5 1022129
06:00+12з1294100 1.1 1022123
09:00+13зсз1292100 1.2 1024183
12:00+13с1293100 1.4 1024192
15:00+13св0190100 2.2 1024204
18:00+13з1195100 2.3 102541
21:00+13с2295100 5.3 102588
6 октября, чт
чт600:00+12з1198100 3.9 102654
03:00+12сз1296100 4.3 102665
06:00+11с119356 0.0 102646
09:00+13ссз117775 0.0 1026351
12:00+15сз226980 0.0 1025722
15:00+16сз116165 0.0 10251013
18:00+15ссз016698 0.0 102512
21:00+14св126899 0.1 102640
7 октября, пт
пт700:00+12всв226751 0.0 102646
03:00+10всв226828 0.0 102622
06:00+10всв236922 0.0 102560
09:00+14в466316 0.0 1025450
12:00+17вюв566566 0.0 1024999
15:00+17вюв566358 0.0 10221072
18:00+14вюв477328 0.0 1023214
21:00+12всв410760 0.0 1022262
8 октября, сб
сб800:00+12в514655 0.0 1022416
03:00+11в6166728 0.0 1021456
06:00+11в817842 0.0 1020579
09:00+14в11188278 0.0 1020814
12:00+16вюв111767100 0.0 10181080
15:00+16вюв111769100 0.0 10171100
18:00+15вюв10177467 0.0 10171015
21:00+15вюв10167472 0.0 1016949
9 октября, вс
вс900:00+13вюв91676100 0.0 1016650
03:00+12вюв7148396 0.0 1016578
06:00+12вюв6128599 0.0 1015534
09:00+14вюв698099 0.0 1015614
12:00+17вюв5668100 0.0 1015689
15:00+17вюв3369100 0.0 1014638
18:00+14юв118384 0.0 101512
21:00+13з2390100 0.0 101648